When you browse on this site, cookies collect data to enhance your experience and personalize the content and advertising you see.
Visit our Privacy Policy to learn more. By continuing to use the site, you agree to this use of cookies and data.
  • En España
  • Lista de países
  • Para 7 días
  • Temperatura del agua
  • El tiempo en el mapa
  • Informadores
  • user-avatar
    Iniciar sesión

    Tiempo cada hora La Calera

    Hoy, 29 Mayo, Viernes

    Tiempo Temperatura Precipitaciones Viento Presión Humedad
    00:00 +11°C° 0 mm 0 mps 744 mmHg 91%
    01:00 +11°C° 0 mm 0 mps 744 mmHg 91%
    02:00 +12°C° 0 mm 1 mps 744 mmHg 90%
    03:00 +13°C° 0 mm 1 mps 744 mmHg 89%
    04:00 +13°C° 0 mm 1 mps 744 mmHg 88%
    05:00 +13°C° 0 mm 1 mps 744 mmHg 87%
    06:00 +13°C° 0 mm 1 mps 744 mmHg 86%
    07:00 +13°C° 0 mm 1 mps 745 mmHg 86%
    08:00 +15°C° 0 mm 1 mps 745 mmHg 80%
    09:00 +16°C° 0 mm 1 mps 745 mmHg 74%
    10:00 +18°C° 0 mm 1 mps 745 mmHg 69%
    11:00 +17°C° 0 mm 2 mps 745 mmHg 66%
    12:00 +18°C° 0 mm 2 mps 745 mmHg 64%
    13:00 +18°C° 0 mm 2 mps 745 mmHg 62%
    14:00 +18°C° 0 mm 2 mps 745 mmHg 65%
    15:00 +17°C° 0 mm 2 mps 745 mmHg 67%
    16:00 +17°C° 0 mm 2 mps 745 mmHg 70%
    17:00 +16°C° 0 mm 1 mps 745 mmHg 76%
    18:00 +15°C° 0 mm 1 mps 745 mmHg 82%
    19:00 +13°C° 0 mm 1 mps 745 mmHg 88%
    20:00 +13°C° 0 mm 1 mps 745 mmHg 88%
    21:00 +13°C° 0 mm 1 mps 745 mmHg 88%
    22:00 +13°C° 0 mm 1 mps 745 mmHg 88%
    23:00 +13°C° 0 mm 1 mps 745 mmHg 89%

    Mañana, 30 Mayo, Sábado

    Tiempo Temperatura Precipitaciones Viento Presión Humedad
    00:00 +12°C° 0 mm 1 mps 745 mmHg 91%
    01:00 +11°C° 0 mm 1 mps 744 mmHg 92%
    02:00 +11°C° 0 mm 1 mps 744 mmHg 91%
    03:00 +11°C° 0 mm 1 mps 744 mmHg 91%
    04:00 +11°C° 0 mm 1 mps 744 mmHg 91%
    05:00 +10°C° 0 mm 1 mps 744 mmHg 91%
    06:00 +10°C° 0 mm 1 mps 744 mmHg 91%
    07:00 +10°C° 0 mm 1 mps 744 mmHg 91%
    08:00 +13°C° 0 mm 1 mps 744 mmHg 79%
    09:00 +16°C° 0 mm 1 mps 744 mmHg 67%
    10:00 +20°C° 0 mm 1 mps 745 mmHg 56%
    11:00 +20°C° 0 mm 2 mps 744 mmHg 54%
    12:00 +20°C° 0 mm 2 mps 744 mmHg 53%
    13:00 +21°C° 0 mm 3 mps 743 mmHg 51%
    14:00 +20°C° 0 mm 2 mps 743 mmHg 55%
    15:00 +19°C° 0 mm 2 mps 743 mmHg 58%
    16:00 +19°C° 0 mm 2 mps 743 mmHg 61%
    17:00 +18°C° 0 mm 1 mps 743 mmHg 68%
    18:00 +16°C° 0 mm 1 mps 743 mmHg 75%
    19:00 +13°C° 0 mm 0 mps 744 mmHg 82%
    20:00 +13°C° 0 mm 0 mps 744 mmHg 83%
    21:00 +13°C° 0 mm 0 mps 744 mmHg 84%
    22:00 +12°C° 0 mm 0 mps 744 mmHg 84%
    23:00 +12°C° 0.2 mm 0 mps 744 mmHg 86%

    Pasado mañana, 31 Mayo, Domingo

    Tiempo Temperatura Precipitaciones Viento Presión Humedad
    00:00 +13°C° 0.2 mm 1 mps 744 mmHg 87%
    01:00 +13°C° 0.2 mm 1 mps 745 mmHg 89%
    02:00 +13°C° 0.9 mm 1 mps 745 mmHg 90%
    03:00 +13°C° 0.9 mm 1 mps 745 mmHg 92%
    04:00 +13°C° 0.9 mm 1 mps 745 mmHg 93%
    05:00 +12°C° 0.2 mm 0 mps 745 mmHg 93%
    06:00 +12°C° 0.2 mm 0 mps 746 mmHg 92%
    07:00 +12°C° 0.2 mm 0 mps 746 mmHg 92%
    08:00 +15°C° 0.1 mm 1 mps 746 mmHg 85%
    09:00 +16°C° 0.1 mm 1 mps 746 mmHg 78%
    10:00 +18°C° 0.1 mm 1 mps 746 mmHg 71%
    11:00 +18°C° 0.2 mm 2 mps 746 mmHg 68%
    12:00 +19°C° 0.2 mm 2 mps 746 mmHg 65%
    13:00 +19°C° 0.2 mm 2 mps 746 mmHg 62%
    14:00 +18°C° 0.1 mm 2 mps 746 mmHg 64%
    15:00 +18°C° 0.1 mm 2 mps 746 mmHg 66%
    16:00 +18°C° 0.1 mm 1 mps 746 mmHg 68%
    17:00 +15°C° 0 mm 1 mps 746 mmHg 75%
    18:00 +14°C° 0 mm 1 mps 747 mmHg 82%
    19:00 +11°C° 0 mm 0 mps 747 mmHg 90%
    20:00 +11°C° 0 mm 0 mps 747 mmHg 90%
    21:00 +10°C° 0 mm 0 mps 747 mmHg 91%
    22:00 +10°C° 0 mm 0 mps 747 mmHg 91%
    23:00 +10°C° 0 mm 0 mps 748 mmHg 91%

    1 Junio, Lunes

    Tiempo Temperatura Precipitaciones Viento Presión Humedad
    00:00 +10°C° 0 mm 0 mps 748 mmHg 91%
    01:00 +9°C° 0 mm 0 mps 748 mmHg 92%
    02:00 +9°C° 0 mm 0 mps 748 mmHg 92%
    03:00 +9°C° 0 mm 0 mps 748 mmHg 92%
    04:00 +9°C° 0 mm 0 mps 748 mmHg 92%
    05:00 +9°C° 0 mm 0 mps 748 mmHg 91%
    06:00 +9°C° 0 mm 0 mps 748 mmHg 91%
    07:00 +9°C° 0 mm 0 mps 749 mmHg 91%
    08:00 +13°C° 0 mm 1 mps 749 mmHg 79%
    09:00 +16°C° 0 mm 1 mps 749 mmHg 68%
    10:00 +20°C° 0 mm 1 mps 749 mmHg 56%
    11:00 +21°C° 0 mm 1 mps 748 mmHg 53%
    12:00 +21°C° 0 mm 2 mps 748 mmHg 51%
    13:00 +23°C° 0 mm 2 mps 748 mmHg 48%
    14:00 +21°C° 0 mm 2 mps 748 mmHg 52%
    15:00 +20°C° 0 mm 2 mps 747 mmHg 55%
    16:00 +19°C° 0 mm 2 mps 747 mmHg 59%
    17:00 +18°C° 0 mm 1 mps 747 mmHg 68%
    18:00 +15°C° 0 mm 1 mps 748 mmHg 76%
    19:00 +12°C° 0 mm 0 mps 748 mmHg 84%
    20:00 +11°C° 0 mm 0 mps 747 mmHg 85%
    21:00 +11°C° 0 mm 0 mps 747 mmHg 85%
    22:00 +11°C° 0 mm 0 mps 747 mmHg 86%
    23:00 +10°C° 0 mm 0 mps 747 mmHg 86%

    2 Junio, Martes

    Tiempo Temperatura Precipitaciones Viento Presión Humedad
    00:00 +10°C° 0 mm 0 mps 746 mmHg 86%
    01:00 +10°C° 0 mm 0 mps 746 mmHg 87%
    02:00 +10°C° 0 mm 0 mps 746 mmHg 88%
    03:00 +9°C° 0 mm 0 mps 745 mmHg 89%
    04:00 +9°C° 0 mm 0 mps 745 mmHg 90%
    05:00 +10°C° 0 mm 0 mps 745 mmHg 90%
    06:00 +10°C° 0 mm 0 mps 745 mmHg 91%
    07:00 +10°C° 0 mm 0 mps 745 mmHg 91%
    08:00 +13°C° 0 mm 1 mps 745 mmHg 84%
    09:00 +15°C° 0 mm 1 mps 745 mmHg 76%
    10:00 +16°C° 0 mm 2 mps 745 mmHg 69%
    11:00 +17°C° 0 mm 2 mps 744 mmHg 67%
    12:00 +17°C° 0 mm 2 mps 744 mmHg 65%
    13:00 +18°C° 0 mm 3 mps 743 mmHg 63%
    14:00 +17°C° 0 mm 3 mps 743 mmHg 65%
    15:00 +16°C° 0 mm 2 mps 743 mmHg 68%
    16:00 +15°C° 0 mm 2 mps 743 mmHg 70%
    17:00 +14°C° 0 mm 2 mps 743 mmHg 77%
    18:00 +12°C° 0 mm 2 mps 743 mmHg 83%
    19:00 +11°C° 0 mm 1 mps 743 mmHg 90%
    20:00 +10°C° 0.8 mm 2 mps 743 mmHg 90%
    21:00 +10°C° 0.8 mm 2 mps 743 mmHg 91%
    22:00 +10°C° 0.8 mm 2 mps 743 mmHg 91%
    23:00 +9°C° 0.9 mm 2 mps 743 mmHg 91%

    3 Junio, Miércoles

    Tiempo Temperatura Precipitaciones Viento Presión Humedad
    00:00 +9°C° 0.9 mm 2 mps 743 mmHg 91%
    01:00 +8°C° 0.9 mm 2 mps 743 mmHg 90%
    02:00 +8°C° 0.6 mm 2 mps 743 mmHg 90%
    03:00 +8°C° 0.6 mm 2 mps 743 mmHg 89%
    04:00 +8°C° 0.6 mm 2 mps 743 mmHg 88%
    05:00 +9°C° 0.2 mm 1 mps 743 mmHg 86%
    06:00 +9°C° 0.2 mm 1 mps 743 mmHg 84%
    07:00 +9°C° 0.2 mm 1 mps 744 mmHg 82%
    08:00 +10°C° 0.1 mm 1 mps 744 mmHg 75%
    09:00 +10°C° 0.1 mm 2 mps 744 mmHg 69%
    10:00 +12°C° 0.1 mm 2 mps 744 mmHg 62%
    11:00 +13°C° 0 mm 2 mps 744 mmHg 59%
    12:00 +13°C° 0 mm 2 mps 743 mmHg 56%
    13:00 +14°C° 0 mm 1 mps 743 mmHg 52%
    14:00 +14°C° 0 mm 2 mps 743 mmHg 55%
    15:00 +13°C° 0 mm 2 mps 743 mmHg 58%
    16:00 +13°C° 0 mm 2 mps 744 mmHg 61%
    17:00 +12°C° 0.1 mm 2 mps 744 mmHg 64%
    18:00 +12°C° 0.1 mm 2 mps 744 mmHg 68%
    19:00 +10°C° 0.1 mm 2 mps 745 mmHg 72%
    20:00 +10°C° 0 mm 2 mps 745 mmHg 72%
    21:00 +11°C° 0 mm 1 mps 745 mmHg 73%
    22:00 +11°C° 0 mm 1 mps 746 mmHg 73%
    23:00 +10°C° 0 mm 1 mps 746 mmHg 76%
    Mostrar más